User: anonymous   Login
Location: Allentsteig
(48.6833°N, 15.3167°E)
Time: 23:33:18
(UTC+00:00)
Language:

Cosmos 1634 Rocket - Orbit

View from above orbital plane
View from above orbital plane
View from above satellite
View from above satellite

Ground track
Ground track

The orbit data is extracted from the following two-line orbital elements,

1 15598U 85022B   21127.53315663 -.00000039  00000-0 -55268-4 0  9994
2 15598  82.9341 131.3580 0023573  96.4010  28.3248 13.76590440815637
Epoch (UTC): 07 May 2021 12:47:44
Eccentricity: 0.0023573
inclination: 82.9341°
perigee height: 958 km
apogee height: 993 km
right ascension of ascending node: 131.3580°
argument of perigee: 96.4010°
revolutions per day: 13.76590440
mean anomaly at epoch: 28.3248°
orbit number at epoch: 81563

The dashed part of the orbit path shows where the satellite is in the earth's shadow,  

DLR